Volver al catálogo

STARLINK-3771

ActivoComunicacionesVLEO
NORAD 52293·PAYLOAD·🇺🇸 United States

Lanzado Apr 21, 2022 desde Cape Canaveral Space Force Station

Loading…

Próximos Pases (próximas 24 horas)

TLE

ActualizadoSource: CelesTrak SupGP

Época: Sep 15, 2026, 02:53 UTC

1 52293C 22041AJ  26258.12062500  .00037135  00000+0  10973-2 0  2587
2 52293  53.1582 316.5381 0001214  94.6826 330.8926 15.34369602    18

Sigue STARLINK-3771 en tiempo real con AllMySat

Download on the App Store